N3LF Weather Reports


time (UTC)temp
F
wind
direction
speed
knots
gust
knots
rain 1hr
in
rain 24hr
in
rain mn
in
humidity
%
barometer
mb
20260504130632 63 221 1.7 2.6 0.00 0.00 0.00 71 1016.1
20260504130129 62 183 2.6 3.5 0.00 0.00 0.00 69 1016.1
20260504110520 57 245 0.9 1.7 0.00 0.00 0.00 74 1015.6
20260504100442 54 233 0.0 0.9 0.00 0.00 0.00 79 1015.2
20260504081841 50 46 0.0 0.9 0.00 0.00 0.00 88 1015.6
20260504081337 49 23 0.9 0.9 0.00 0.00 0.00 89 1015.9
20260504080833 49 243 0.0 0.9 0.00 0.00 0.00 90 1015.6
20260504080331 49 242 0.0 0.0 0.00 0.00 0.00 90 1015.6
20260504070258 49 205 0.0 0.0 0.00 0.00 0.00 89 1016.1
20260504060218 49 219 0.0 0.0 0.00 0.00 0.00 86 1016.5
20260504050646 49 220 0.0 0.0 0.00 0.00 0.00 85 1017.0
20260504050143 50 229 0.0 0.0 0.00 0.00 0.00 85 1017.1
20260504045640 50 229 0.0 0.0 0.00 0.00 0.00 82 1017.4
20260504045140 50 233 0.0 0.0 0.00 0.00 0.00 83 1017.4
20260504044638 51 229 0.0 0.0 0.00 0.00 0.00 83 1017.4
20260504044135 51 230 0.0 0.0 0.00 0.00 0.00 82 1017.3
20260504043632 50 250 0.0 0.0 0.00 0.00 0.00 81 1017.6
20260504043129 51 254 0.0 0.0 0.00 0.00 0.00 82 1017.5
20260504042626 51 233 0.0 0.0 0.00 0.00 0.00 82 1017.4
20260504042123 51 314 0.0 0.0 0.00 0.00 0.00 81 1017.5
20260504041619 51 267 0.0 0.0 0.00 0.00 0.00 80 1017.4
20260504041115 51 229 0.0 1.7 0.00 0.00 0.00 80 1017.3
20260504040613 52 319 0.9 1.7 0.00 0.00 0.00 80 1017.1
20260504040109 52 28 1.7 1.7 0.00 0.00 0.00 76 1016.9
20260504035606 53 23 0.9 1.7 0.00 0.00 0.00 74 1017.0
20260504035102 54 27 0.9 1.7 0.00 0.00 0.00 70 1016.8
20260504034600 54 47 0.9 1.7 0.00 0.00 0.00 70 1016.9
20260504034057 54 216 0.0 0.9 0.00 0.00 0.00 71 1016.8
20260504033555 52 313 0.0 0.9 0.00 0.00 0.00 74 1016.8
20260504033052 52 201 0.0 0.9 0.00 0.00 0.00 76 1016.8
20260504032549 52 196 1.7 1.7 0.00 0.00 0.00 79 1016.9
20260504032046 51 200 1.7 1.7 0.00 0.00 0.00 78 1017.1
20260504031543 51 223 0.0 0.0 0.00 0.00 0.00 82 1017.3
20260504031038 51 244 0.0 0.0 0.00 0.00 0.00 84 1017.3
20260504030536 51 230 0.0 0.0 0.00 0.00 0.00 83 1017.5
20260504030032 51 230 0.0 0.0 0.00 0.00 0.00 82 1017.4
20260504025530 51 230 0.0 0.0 0.00 0.00 0.00 82 1017.5
20260504025026 52 230 0.0 0.0 0.00 0.00 0.00 80 1017.5
20260504024523 52 229 0.0 0.0 0.00 0.00 0.00 78 1017.6
20260504024020 52 223 0.0 0.0 0.00 0.00 0.00 78 1017.6
20260504023517 52 222 0.0 0.0 0.00 0.00 0.00 80 1017.7
20260504023013 53 223 0.0 0.0 0.00 0.00 0.00 78 1017.5
20260504022508 53 223 0.0 0.0 0.00 0.00 0.00 77 1017.4
20260504022005 53 223 0.0 0.0 0.00 0.00 0.00 74 1017.6
20260504021503 53 223 0.0 0.0 0.00 0.00 0.00 74 1017.7
20260504021000 54 223 0.0 0.0 0.00 0.00 0.00 73 1017.6
20260504020456 54 223 0.0 0.0 0.00 0.00 0.00 72 1017.5
20260504015953 55 223 0.0 0.0 0.00 0.00 0.00 73 1017.3
20260504015449 55 222 0.0 0.0 0.00 0.00 0.00 68 1017.6
20260504014945 55 229 0.0 0.0 0.00 0.00 0.00 69 1017.8
20260504014441 56 230 0.0 0.0 0.00 0.00 0.00 67 1017.8
20260504013938 56 230 0.0 0.0 0.00 0.00 0.00 65 1017.6
20260504013437 57 229 0.0 0.0 0.00 0.00 0.00 65 1017.5
20260504012932 57 229 0.0 0.0 0.00 0.00 0.00 62 1017.5
20260504012431 58 231 0.0 0.0 0.00 0.00 0.00 64 1017.3
20260504011928 58 230 0.0 0.0 0.00 0.00 0.00 61 1017.4
20260504011425 59 222 0.0 0.0 0.00 0.00 0.00 56 1017.2
20260504010920 59 227 0.0 0.0 0.00 0.00 0.00 56 1017.2
20260504010417 59 227 0.0 0.0 0.00 0.00 0.00 56 1017.1
20260504005913 59 230 0.0 0.0 0.00 0.00 0.00 58 1017.1
20260504005409 60 229 0.0 0.0 0.00 0.00 0.00 56 1017.1
20260504004908 60 227 0.0 0.0 0.00 0.00 0.00 57 1017.1
20260504004405 61 230 0.0 0.0 0.00 0.00 0.00 58 1017.0
20260504003901 61 223 0.0 0.0 0.00 0.00 0.00 54 1016.9
20260504003358 62 232 0.0 0.0 0.00 0.00 0.00 56 1017.1
20260504002855 62 219 0.0 0.0 0.00 0.00 0.00 52 1017.1
20260504002351 63 222 0.0 0.0 0.00 0.00 0.00 51 1017.2
20260504001849 64 222 0.0 0.9 0.00 0.00 0.00 49 1017.3
20260504001346 64 196 0.9 1.7 0.00 0.00 0.00 46 1017.5
20260504000843 65 222 0.9 1.7 0.00 0.00 0.00 44 1017.7
20260504000340 66 228 1.7 1.7 0.00 0.00 0.00 43 1017.4
20260503235838 66 200 1.7 1.7 0.00 0.00 0.00 43 1017.3
20260503235335 66 226 0.9 1.7 0.00 0.00 0.00 42 1017.4
20260503234832 67 210 0.9 1.7 0.00 0.00 0.00 41 1017.4
20260503234330 67 211 1.7 3.5 0.00 0.00 0.00 42 1017.5
20260503233828 68 226 2.6 2.6 0.00 0.00 0.00 39 1017.5
20260503233323 68 222 0.9 1.7 0.00 0.00 0.00 40 1017.7
20260503232820 68 226 1.7 5.2 0.00 0.00 0.00 39 1017.5
20260503232318 68 205 0.0 2.6 0.00 0.00 0.00 39 1017.6
20260503231815 68 236 1.7 1.7 0.00 0.00 0.00 42 1017.7
20260503231312 68 216 0.9 1.7 0.00 0.00 0.00 39 1018.0
20260503230808 68 243 0.9 3.5 0.00 0.00 0.00 40 1017.8
20260503230305 69 200 2.6 3.5 0.00 0.00 0.00 38 1018.2
20260503225803 69 228 1.7 5.2 0.00 0.00 0.00 38 1018.3
20260503225258 69 217 0.9 2.6 0.00 0.00 0.00 38 1018.3
20260503224755 69 229 2.6 5.2 0.00 0.00 0.00 40 1018.6
20260503224252 69 241 1.7 5.2 0.00 0.00 0.00 39 1018.4
20260503223750 70 206 0.9 2.6 0.00 0.00 0.00 39 1018.4
20260503223248 69 238 2.6 5.2 0.00 0.00 0.00 39 1018.4
20260503222743 69 171 2.6 7.8 0.00 0.00 0.00 40 1018.5
20260503222241 70 190 2.6 3.5 0.00 0.00 0.00 38 1018.5
20260503221740 70 226 0.9 1.7 0.00 0.00 0.00 39 1018.7
20260503221237 70 206 0.9 1.7 0.00 0.00 0.00 40 1018.7
20260503220733 69 216 0.9 6.1 0.00 0.00 0.00 39 1018.8
20260503220231 71 214 3.5 3.5 0.00 0.00 0.00 37 1018.9
20260503215727 71 281 4.3 12.2 0.00 0.00 0.00 37 1018.8
20260503215224 71 291 0.0 0.9 0.00 0.00 0.00 38 1018.9
20260503214723 70 221 1.7 2.6 0.00 0.00 0.00 40 1019.0
20260503214219 70 223 1.7 3.5 0.00 0.00 0.00 39 1019.2
20260503213717 71 283 6.1 7.0 0.00 0.00 0.00 37 1019.1
20260503213214 70 260 0.9 1.7 0.00 0.00 0.00 38 1019.3
20260503212711 69 225 0.9 2.6 0.00 0.00 0.00 37 1019.4
20260503212208 69 161 1.7 3.5 0.00 0.00 0.00 39 1019.4
20260503211706 69 158 1.7 7.0 0.00 0.00 0.00 39 1019.5
20260503211201 69 194 3.5 5.2 0.00 0.00 0.00 37 1019.5
20260503210658 68 188 2.6 7.8 0.00 0.00 0.00 36 1019.7
20260503210155 69 228 1.7 7.8 0.00 0.00 0.00 36 1019.7
20260503205650 70 83 2.6 3.5 0.00 0.00 0.00 35 1019.8
20260503205146 70 244 0.9 3.5 0.00 0.00 0.00 36 1020.0
20260503204643 69 235 2.6 7.0 0.00 0.00 0.00 37 1020.2
20260503204141 70 140 1.7 2.6 0.00 0.00 0.00 36 1020.1
20260503203638 69 240 0.9 2.6 0.00 0.00 0.00 37 1020.2
20260503203136 69 200 2.6 7.0 0.00 0.00 0.00 38 1020.5
20260503202632 69 204 3.5 6.1 0.00 0.00 0.00 35 1020.4
20260503202131 69 347 1.7 2.6 0.00 0.00 0.00 35 1020.3
20260503201628 70 185 1.7 5.2 0.00 0.00 0.00 36 1020.6
20260503201125 68 269 1.7 6.1 0.00 0.00 0.00 37 1020.7
20260503200621 69 295 4.3 7.8 0.00 0.00 0.00 38 1020.9
20260503200118 68 218 3.5 8.7 0.00 0.00 0.00 37 1020.8
20260503195615 70 300 2.6 3.5 0.00 0.00 0.00 36 1020.9
20260503195112 70 254 3.5 7.8 0.00 0.00 0.00 34 1020.9
20260503194609 69 190 0.9 1.7 0.00 0.00 0.00 36 1021.2
20260503194104 68 248 1.7 3.5 0.00 0.00 0.00 39 1021.4
20260503193601 68 195 1.7 8.7 0.00 0.00 0.00 37 1021.5
20260503193056 68 198 1.7 5.2 0.00 0.00 0.00 38 1021.7
20260503192552 67 256 2.6 3.5 0.00 0.00 0.00 38 1021.6
20260503192048 67 217 0.9 1.7 0.00 0.00 0.00 38 1021.7
20260503191545 68 268 5.2 7.0 0.00 0.00 0.00 38 1021.8
20260503191042 68 123 3.5 7.0 0.00 0.00 0.00 38 1021.9
20260503190539 69 293 3.5 7.0 0.00 0.00 0.00 38 1022.1
20260503190037 67 277 0.0 2.6 0.00 0.00 0.00 38 1022.0
20260503185533 66 256 2.6 5.2 0.00 0.00 0.00 38 1022.2
20260503185032 66 40 4.3 7.8 0.00 0.00 0.00 39 1022.1
20260503184529 68 246 1.7 1.7 0.00 0.00 0.00 42 1022.1
20260503184026 66 242 1.7 5.2 0.00 0.00 0.00 39 1022.1
20260503183522 68 351 4.3 9.6 0.00 0.00 0.00 37 1022.2
20260503183019 68 218 3.5 6.1 0.00 0.00 0.00 40 1022.1
20260503182518 65 198 0.9 1.7 0.00 0.00 0.00 38 1022.4
20260503182015 65 354 6.1 8.7 0.00 0.00 0.00 39 1022.2
20260503181512 66 213 4.3 13.9 0.00 0.00 0.00 38 1022.4
20260503181008 66 152 1.7 6.1 0.00 0.00 0.00 40 1022.7
20260503180506 66 211 2.6 2.6 0.00 0.00 0.00 40 1022.6
20260503180003 66 250 2.6 5.2 0.00 0.00 0.00 39 1022.5
20260503175501 67 321 2.6 3.5 0.00 0.00 0.00 41 1022.7
20260503174956 66 52 3.5 6.1 0.00 0.00 0.00 39 1022.9
20260503174455 65 229 2.6 7.8 0.00 0.00 0.00 42 1023.0
20260503173950 66 142 2.6 3.5 0.00 0.00 0.00 39 1023.0
20260503173446 67 8 0.0 2.6 0.00 0.00 0.00 39 1023.0
20260503172943 65 169 3.5 3.5 0.00 0.00 0.00 38 1023.1
20260503172440 66 233 1.7 3.5 0.00 0.00 0.00 38 1023.4
20260503171937 65 165 0.9 2.6 0.00 0.00 0.00 40 1023.5
20260503171433 65 316 0.9 2.6 0.00 0.00 0.00 41 1023.5
20260503170931 64 344 1.7 2.6 0.00 0.00 0.00 40 1023.5
20260503170427 63 193 2.6 2.6 0.00 0.00 0.00 39 1023.6
20260503150819 62 27 1.7 1.7 0.00 0.00 0.00 51 1024.4
20260503150315 62 106 1.7 2.6 0.00 0.00 0.00 52 1024.5
20260503140240 49 185 0.0 0.9 0.00 0.00 0.00 99 1024.5